Location: Sobotiste
(48.7170°N, 17.4000°E)
Time: 05:16:23
(UTC+02:00)

AO-73 - Pass Details

Date: 23 March 2026
Orbit: 514 x 567 km, 97.8° (Epoch: 12 April)

Event Time Altitude Azimuth Distance (km) Brightness Sun altitude
Rises 04:09:38 0° 8° (N) 2,653 ? -16.6°
Reaches altitude 10° 04:11:47 10° 3° (N) 1,756 ? -16.2°
Maximum altitude 04:15:25 47° 289° (WNW) 688 ? -15.7°
Enters shadow 04:16:57 29° 232° (SW) 967 ? -15.4°
